Regional Weather Roundup
Issued by NWS

Home | Current Version | Previous Version | Text Only | Print | Product List | Glossary Off
Versions: 1 2 3 4 5 6 7 8 9 10 11 12 13 14 15 16 17 18 19 20 21 22 23 24 25 26 27 28 29 30 31 32 33 34 35 36 37 38 39 40 41 42 43 44 45 46 47 48 49 50

000
ASUS45 KCYS 052110
RWRWY

WYOMING REGIONAL WEATHER ROUNDUP
NATIONAL WEATHER SERVICE CHEYENNE WY
300 PM MDT THU MAY 05 2016

NOTE:  "FAIR" INDICATES FEW OR NO CLOUDS BELOW 12,000 FEET
WITH NO SIGNIFICANT WEATHER AND/OR OBSTRUCTIONS TO VISIBILITY.

WYZ001-052200-
YELLOWSTONE NATIONAL PARK

CITY           SKY/WX    TMP DP  RH WIND       PRES   REMARKS
LK YELLOWSTONE   N/A     57  26  30 VRB3      30.16F
W YELLOWSTONE  NOT AVBL

$$
WYZ002>013-054>058-071-098>099-052200-
NORTHERN WYOMING

CITY           SKY/WX    TMP DP  RH WIND       PRES   REMARKS
JACKSON        SUNNY     72  30  21 S5        30.05F
CODY           FAIR      77  30  18 S5        29.97F
GREYBULL       FAIR      84  24  11 MISG      29.91F
WORLAND        FAIR      82  32  16 MISG      29.94F
SHERIDAN       FAIR      83  38  20 NE7       29.92S
BUFFALO        FAIR      81  32  17 E7        29.98F
GILLETTE       FAIR      76  46  34 SW7       29.95S
HULETT         FAIR      81  30  16 W8        29.95S
NEWCASTLE      FAIR      81  25  12 W8        29.95F

$$
WYZ014>020-022>026-101>103-052200-
CENTRAL WYOMING

CITY           SKY/WX    TMP DP  RH WIND       PRES   REMARKS
BIG PINEY      FAIR      72  22  15 S13G23    30.10F
PINEDALE       FAIR      70  23  17 SE10G16   30.11F
DUBOIS         MOCLDY    70  28  21 S9        30.10S
LANDER         FAIR      77  39  25 E7        30.00F
RIVERTON       FAIR      75  38  26 NE8       30.03F
CASPER         FAIR      78  31  17 W6        30.02F
DOUGLAS        FAIR      79  29  16 VRB3      30.01F

$$
WYZ021-027>030-104>119-052200-
SOUTHERN WYOMING

CITY           SKY/WX    TMP DP  RH WIND       PRES   REMARKS
EVANSTON       FAIR      74  21  13 S17G25    30.06F
KEMMERER         N/A     73  19  13 S12G17    30.10F
FORT BRIDGER   CLEAR     75  19  12 S10G21    30.10F
ROCK SPRINGS   FAIR      73  19  13 S10       30.09F
DIXON          FAIR      73  27  18 SW5       30.14F
RAWLINS        FAIR      71  21  15 CALM      30.13F
SARATOGA       MOCLDY    72  23  16 N8        30.15F
LARAMIE        PTSUNNY   68  27  21 SW3       30.15F
CHEYENNE       FAIR      76  25  15 N6        30.09F
TORRINGTON     FAIR      80  29  15 SW7       29.97S
PINE BLUFFS    FAIR      77  28  16 CALM      30.06F

$$



USA.gov is the U.S. government's official web portal to all federal, state and local government web resources and services.